User: anonymous
Location: SAPM � Hemmingford
(45.0500°N, 73.5833°W)
Time: 19:59:20
(UTC-04:00)
Language:

Cosmos 1674 Rocket - Orbit

View from above orbital plane
View from above orbital plane
View from above satellite
View from above satellite

Ground track
Ground track

The orbit data is extracted from the following two-line orbital elements,

1 15945U 85069B   14294.49794539  .00000582  00000-0  67825-4 0  7986
2 15945 082.5259 320.9427 0018850 238.2582 234.9382 14.83440385577242
Epoch (UTC): 21 October 2014 11:57:02
Eccentricity: 0.0018850
inclination: 82.5259°
perigee height: 605 km
apogee height: 631 km
right ascension of ascending node: 320.9427°
argument of perigee: 238.2582°
revolutions per day: 14.83440385
mean anomaly at epoch: 234.9382°
orbit number at epoch: 57724

The dashed part of the orbit path shows where the satellite is in the earth's shadow,  

DLR